User: anonymous   Login
Location: Unspecified
(0.0000°N, 0.0000°E)
Time: 23:03:20
(UTC+00:00)
Language:

EDUSAT - Orbit

View from above orbital plane
View from above orbital plane
View from above satellite
View from above satellite

Ground track
Ground track

The orbit data is extracted from the following two-line orbital elements,

1 37788U 11044A   18343.93768243 +.00000062 +00000-0 +18818-4 0  9992
2 37788 098.3146 116.4753 0038342 173.9064 298.1134 14.70869083392371
Epoch (UTC): 09 December 2018 22:30:15
Eccentricity: 0.0038342
inclination: 98.3146°
perigee height: 631 km
apogee height: 685 km
right ascension of ascending node: 116.4753°
argument of perigee: 173.9064°
revolutions per day: 14.70869083
mean anomaly at epoch: 298.1134°
orbit number at epoch: 39237

The dashed part of the orbit path shows where the satellite is in the earth's shadow,  

DLR